Location: Doussal
(55.6167°N, 116.8333°W)
Time: 04:24:44
(UTC+00:00)

METEOR M2 - Pass Details

Date: 10 December 2023
Orbit: 818 x 826 km, 98.4° (Epoch: 25 February)

Event Time Altitude Azimuth Distance (km) Brightness Sun altitude
Rises 13:21:27 0° 18° (NNE) 3,375 ? -21.3°
Reaches altitude 10° 13:23:54 10° 24° (NNE) 2,436 ? -21.0°
Maximum altitude 13:29:07 48° 99° (E) 1,073 ? -20.3°
Drops below altitude 10° 13:34:17 10° 173° (S) 2,414 ? -19.5°
Sets 13:36:42 0° 179° (S) 3,341 ? -19.2°
